DW7533 Weather Reports


time (UTC)temp
C
wind
direction
speed
KPH
gust
KPH
rain 1hr
cm
rain 24hr
cm
rain mn
cm
humidity
%
barometer
mb
20260506201304 7 333 0.0 1.6 0.00 0.00 0.00 95 1032.2
20260506200805 7 333 1.6 1.6 0.00 0.00 0.00 94 1032.2
20260506200305 7 333 0.0 1.6 0.00 0.00 0.00 95 1032.2
20260506195805 7 333 0.0 1.6 0.00 0.00 0.00 95 1032.2
20260506195306 7 333 0.0 1.6 0.00 0.00 0.00 94 1032.1
20260506194805 7 333 0.0 1.6 0.00 0.00 0.00 94 1032.1
20260506194305 7 333 0.0 3.2 0.00 0.00 0.00 94 1032.1
20260506193805 7 333 0.0 3.2 0.00 0.00 0.00 94 1032.0
20260506193305 8 333 0.0 3.2 0.00 0.00 0.00 94 1032.0
20260506192805 8 333 0.0 1.6 0.00 0.00 0.00 94 1032.0
20260506192306 8 333 0.0 3.2 0.00 0.00 0.00 94 1032.0
20260506191304 8 333 0.0 1.6 0.00 0.00 0.00 94 1032.1
20260506190805 8 333 0.0 1.6 0.00 0.00 0.00 94 1032.1
20260506190305 8 333 0.0 3.2 0.00 0.00 0.00 94 1032.1
20260506185805 8 333 0.0 3.2 0.00 0.00 0.00 94 1032.1
20260506185307 8 333 0.0 3.2 0.00 0.00 0.00 94 1032.1
20260506184804 9 333 1.6 3.2 0.00 0.00 0.00 94 1032.0
20260506184305 9 328 0.0 3.2 0.00 0.00 0.00 94 1032.0
20260506183804 9 328 0.0 1.6 0.00 0.00 0.00 94 1032.0
20260506182805 10 7 0.0 3.2 0.00 0.00 0.00 94 1032.0
20260506182306 10 7 1.6 3.2 0.00 0.00 0.00 94 1032.0
20260506181805 10 7 0.0 3.2 0.00 0.00 0.00 94 1032.0
20260506181305 10 2 0.0 8.0 0.00 0.00 0.00 94 1032.0
20260506180805 10 64 0.0 1.6 0.00 0.00 0.00 94 1032.0
20260506180305 10 64 0.0 4.8 0.00 0.00 0.00 94 1032.0
20260506175804 10 60 0.0 1.6 0.00 0.00 0.00 94 1032.0
20260506175306 10 59 1.6 4.8 0.00 0.00 0.00 94 1032.0
20260506174305 9 304 1.6 3.2 0.00 0.00 0.00 93 1032.0
20260506173805 9 304 1.6 3.2 0.00 0.00 0.00 93 1032.0
20260506173304 9 281 3.2 4.8 0.00 0.00 0.00 93 1032.1
20260506172804 10 213 0.0 4.8 0.00 0.00 0.00 93 1032.1
20260506172307 10 121 0.0 3.2 0.00 0.00 0.00 93 1032.1
20260506171805 9 92 1.6 8.0 0.00 0.00 0.00 93 1032.1
20260506171305 9 12 1.6 3.2 0.00 0.00 0.00 92 1032.1
20260506170804 9 357 0.0 4.8 0.00 0.00 0.00 92 1032.1
20260506170305 9 0 4.8 9.7 0.00 0.00 0.00 92 1032.1
20260506165805 9 293 0.0 1.6 0.00 0.00 0.00 91 1032.1
20260506164304 10 10 0.0 1.6 0.00 0.00 0.00 90 1032.1
20260506163805 10 10 0.0 3.2 0.00 0.00 0.00 90 1032.1
20260506163305 10 284 1.6 3.2 0.00 0.00 0.00 89 1032.1
20260506162805 10 261 0.0 3.2 0.00 0.00 0.00 89 1032.1
20260506162307 10 359 0.0 3.2 0.00 0.00 0.00 88 1032.1
20260506161805 10 359 1.6 3.2 0.00 0.00 0.00 88 1032.2
20260506161305 10 330 0.0 3.2 0.00 0.00 0.00 88 1032.2
20260506160820 10 333 1.6 4.8 0.00 0.00 0.00 87 1032.2
20260506160307 11 24 4.8 11.3 0.00 0.00 0.00 87 1032.2
20260506155806 11 357 0.0 4.8 0.00 0.00 0.00 87 1032.2
20260506155306 11 266 1.6 3.2 0.00 0.00 0.00 87 1032.2
20260506154807 11 305 0.0 3.2 0.00 0.00 0.00 86 1032.2
20260506154305 11 344 0.0 3.2 0.00 0.00 0.00 86 1032.2
20260506153805 11 338 1.6 3.2 0.00 0.00 0.00 85 1032.2
20260506152805 11 338 0.0 3.2 0.00 0.00 0.00 85 1032.2
20260506152306 12 310 0.0 3.2 0.00 0.00 0.00 85 1032.2
20260506151806 12 213 0.0 1.6 0.00 0.00 0.00 84 1032.2
20260506150804 12 213 0.0 1.6 0.00 0.00 0.00 83 1032.2
20260506150305 12 213 0.0 3.2 0.00 0.00 0.00 83 1032.2
20260506145306 12 154 0.0 1.6 0.00 0.00 0.00 83 1032.3
20260506144806 12 154 0.0 1.6 0.00 0.00 0.00 83 1032.3
20260506144305 13 154 1.6 3.2 0.00 0.00 0.00 83 1031.9
20260506143805 13 67 1.6 1.6 0.00 0.00 0.00 82 1031.9
20260506143306 13 49 0.0 3.2 0.00 0.00 0.00 82 1031.9
20260506142805 13 49 0.0 1.6 0.00 0.00 0.00 82 1031.9
20260506142306 13 49 0.0 3.2 0.00 0.00 0.00 82 1031.9
20260506140806 13 66 1.6 3.2 0.00 0.00 0.00 82 1031.9
20260506140305 13 84 1.6 4.8 0.00 0.00 0.00 82 1031.9
20260506135805 13 64 1.6 4.8 0.00 0.00 0.00 82 1031.9
20260506135306 13 24 1.6 3.2 0.00 0.00 0.00 83 1031.9
20260506134806 13 327 0.0 3.2 0.00 0.00 0.00 83 1031.9
20260506134304 13 297 1.6 4.8 0.00 0.00 0.00 83 1031.6
20260506133805 13 75 1.6 4.8 0.00 0.00 0.00 83 1031.6
20260506133304 13 40 1.6 4.8 0.00 0.00 0.00 83 1031.6
20260506132805 13 87 1.6 4.8 0.00 0.00 0.00 84 1031.6
20260506132307 13 236 1.6 4.8 0.00 0.00 0.00 84 1031.6
20260506131805 13 239 1.6 4.8 0.00 0.00 0.00 84 1031.6
20260506131306 13 220 0.0 3.2 0.00 0.00 0.00 85 1031.6
20260506130806 13 253 1.6 8.0 0.00 0.00 0.00 85 1031.6
20260506130305 13 264 3.2 4.8 0.00 0.00 0.00 86 1031.6
20260506125804 12 102 3.2 8.0 0.00 0.00 0.00 87 1031.5
20260506124804 12 199 1.6 8.0 0.00 0.00 0.00 87 1031.5
20260506124306 12 80 1.6 9.7 0.00 0.00 0.00 87 1031.5
20260506123805 12 184 1.6 4.8 0.00 0.00 0.00 87 1031.4
20260506123306 12 258 0.0 4.8 0.00 0.00 0.00 86 1031.4
20260506122805 12 263 1.6 3.2 0.00 0.00 0.00 86 1031.4
20260506121805 12 357 1.6 1.6 0.00 0.00 0.00 84 1031.4
20260506121305 12 5 0.0 1.6 0.00 0.00 0.00 83 1031.4
20260506120304 12 53 0.0 1.6 0.00 0.00 0.00 82 1031.4
20260506115806 12 53 0.0 1.6 0.00 0.00 0.00 81 1031.4
20260506114804 13 53 0.0 3.2 0.00 0.00 0.00 81 1031.2
20260506114304 13 53 0.0 1.6 0.00 0.00 0.00 80 1031.2
20260506113804 13 53 0.0 0.0 0.00 0.00 0.00 80 1030.3
20260506113306 13 53 0.0 1.6 0.00 0.00 0.00 80 1030.3
20260506112306 13 53 0.0 1.6 0.00 0.00 0.00 79 1030.3
20260506111806 13 53 0.0 1.6 0.00 0.00 0.00 79 1030.3
20260506111305 14 53 0.0 4.8 0.00 0.00 0.00 79 1030.3
20260506110304 14 55 1.6 3.2 0.00 0.00 0.00 77 1030.3
20260506105804 15 230 0.0 0.0 0.00 0.00 0.00 77 1030.3
20260506104805 15 230 0.0 0.0 0.00 0.00 0.00 77 1030.3
20260506104305 15 230 0.0 0.0 0.00 0.00 0.00 76 1030.3
20260506103806 15 230 0.0 0.0 0.00 0.00 0.00 76 1030.3
20260506103305 15 230 0.0 0.0 0.00 0.00 0.00 75 1030.3
20260506102805 16 230 0.0 0.0 0.00 0.00 0.00 75 1030.3
20260506102305 16 230 0.0 0.0 0.00 0.00 0.00 74 1030.3
20260506101805 16 230 0.0 0.0 0.00 0.00 0.00 73 1030.3
20260506101305 16 230 0.0 0.0 0.00 0.00 0.00 72 1030.3
20260506100805 16 230 0.0 0.0 0.00 0.00 0.00 72 1030.3
20260506100306 16 230 0.0 0.0 0.00 0.00 0.00 71 1030.3
20260506095805 17 230 0.0 1.6 0.00 0.00 0.00 71 1030.3
20260506094305 17 230 0.0 0.0 0.00 0.00 0.00 69 1030.3
20260506093805 17 230 0.0 1.6 0.00 0.00 0.00 68 1030.3
20260506093305 17 208 0.0 3.2 0.00 0.00 0.00 68 1030.2
20260506092806 18 209 0.0 1.6 0.00 0.00 0.00 68 1029.9
20260506092306 18 90 0.0 3.2 0.00 0.00 0.00 67 1029.9
20260506090806 18 85 1.6 3.2 0.00 0.00 0.00 66 1029.9
20260506090305 18 20 1.6 4.8 0.00 0.00 0.00 66 1029.9
20260506085805 18 72 1.6 4.8 0.00 0.00 0.00 66 1029.9
20260506084806 18 187 1.6 3.2 0.00 0.00 0.00 66 1029.9
20260506084305 18 76 0.0 1.6 0.00 0.00 0.00 64 1029.7
20260506083805 19 74 3.2 9.7 0.00 0.00 0.00 65 1029.7
20260506083305 19 54 3.2 9.7 0.00 0.00 0.00 64 1029.7
20260506082805 19 97 3.2 8.0 0.00 0.00 0.00 63 1029.7
20260506082305 19 71 3.2 4.8 0.00 0.00 0.00 62 1029.7
20260506081804 20 78 1.6 8.0 0.00 0.00 0.00 62 1029.5
20260506081306 20 65 3.2 11.3 0.00 0.00 0.00 63 1029.5
20260506080804 20 56 4.8 9.7 0.00 0.00 0.00 62 1029.5
20260506080305 20 34 4.8 11.3 0.00 0.00 0.00 62 1029.5
20260506073305 20 12 3.2 9.7 0.00 0.00 0.00 60 1029.6
20260506072805 20 92 4.8 12.9 0.00 0.00 0.00 61 1029.6
20260506071807 20 72 8.0 12.9 0.00 0.00 0.00 62 1029.5
20260506071304 20 56 4.8 11.3 0.00 0.00 0.00 61 1029.5
20260506070804 20 102 4.8 14.5 0.00 0.00 0.00 61 1029.5
20260506062306 20 104 6.4 14.5 0.00 0.00 0.00 63 1029.5
20260506061305 20 113 4.8 8.0 0.00 0.00 0.00 64 1029.5
20260506060304 20 133 3.2 4.8 0.00 0.00 0.00 63 1029.6
20260506051305 20 59 6.4 12.9 0.00 0.00 0.00 65 1029.8
20260506050805 19 97 6.4 14.5 0.00 0.00 0.00 64 1029.9
20260506050305 19 52 4.8 16.1 0.00 0.00 0.00 64 1029.9
20260506044805 19 50 4.8 11.3 0.00 0.00 0.00 65 1030.1
20260506044304 19 64 4.8 11.3 0.00 0.00 0.00 65 1030.2
20260506043306 18 81 8.0 19.3 0.00 0.00 0.00 67 1031.1
20260506042305 18 32 11.3 19.3 0.00 0.00 0.00 66 1031.1
20260506041804 18 38 9.7 16.1 0.00 0.00 0.00 66 1031.1
20260506041304 18 42 6.4 14.5 0.00 0.00 0.00 66 1031.1
20260506040805 18 30 6.4 12.9 0.00 0.00 0.00 66 1031.1
20260506040305 18 41 9.7 19.3 0.00 0.00 0.00 66 1031.1
20260506035805 18 56 8.0 11.3 0.00 0.00 0.00 67 1031.1
20260506035306 18 27 4.8 11.3 0.00 0.00 0.00 68 1031.1
20260506034804 18 55 4.8 16.1 0.00 0.00 0.00 68 1031.1
20260506034305 18 73 8.0 12.9 0.00 0.00 0.00 68 1031.1
20260506033804 18 91 4.8 14.5 0.00 0.00 0.00 70 1031.7
20260506033305 17 64 4.8 22.5 0.00 0.00 0.00 68 1031.7
20260506032805 17 92 6.4 19.3 0.00 0.00 0.00 68 1031.7
20260506032306 17 85 4.8 14.5 0.00 0.00 0.00 69 1031.7
20260506031806 17 49 11.3 20.9 0.00 0.00 0.00 70 1031.7
20260506031305 17 88 8.0 14.5 0.00 0.00 0.00 69 1031.7
20260506030305 17 29 3.2 11.3 0.00 0.00 0.00 72 1031.7
20260506025805 17 72 8.0 19.3 0.00 0.00 0.00 71 1031.7
20260506025306 16 102 9.7 25.7 0.00 0.00 0.00 71 1031.8
20260506024805 16 56 9.7 25.7 0.00 0.00 0.00 72 1031.8
20260506024306 16 59 11.3 19.3 0.00 0.00 0.00 71 1032.2
20260506023807 17 61 3.2 11.3 0.00 0.00 0.00 72 1032.2
20260506023305 16 34 4.8 14.5 0.00 0.00 0.00 72 1032.2
20260506022307 16 98 4.8 12.9 0.00 0.00 0.00 73 1032.2
20260506021804 16 51 9.7 19.3 0.00 0.00 0.00 73 1032.2
20260506021305 16 40 14.5 24.1 0.00 0.00 0.00 73 1032.2
20260506020804 16 59 9.7 20.9 0.00 0.00 0.00 72 1032.2
20260506015805 16 103 4.8 12.9 0.00 0.00 0.00 74 1032.2
20260506015306 16 49 4.8 16.1 0.00 0.00 0.00 73 1032.2
20260506014804 15 73 4.8 16.1 0.00 0.00 0.00 74 1032.2
20260506014305 15 65 4.8 19.3 0.00 0.00 0.00 75 1032.2
20260506013806 15 57 9.7 20.9 0.00 0.00 0.00 75 1032.2
20260506013306 15 53 8.0 14.5 0.00 0.00 0.00 76 1032.3
20260506011805 15 42 4.8 16.1 0.00 0.00 0.00 78 1032.3
20260506011305 14 106 9.7 16.1 0.00 0.00 0.00 78 1032.3
20260506010805 14 78 8.0 22.5 0.00 0.00 0.00 79 1032.2
20260506010305 14 64 6.4 19.3 0.00 0.00 0.00 80 1032.2
20260506005805 14 102 8.0 11.3 0.00 0.00 0.00 79 1032.2
20260506005306 13 54 4.8 14.5 0.00 0.00 0.00 80 1032.2
20260506004805 13 68 8.0 14.5 0.00 0.00 0.00 81 1032.2
20260506003804 13 100 4.8 14.5 0.00 0.00 0.00 81 1032.0
20260506003304 13 87 4.8 19.3 0.00 0.00 0.00 82 1032.0
20260506002805 13 41 4.8 11.3 0.00 0.00 0.00 82 1032.0
20260506002306 13 76 8.0 12.9 0.00 0.00 0.00 82 1032.0
20260506001806 13 45 8.0 16.1 0.00 0.00 0.00 82 1031.6
20260506001305 12 106 8.0 12.9 0.00 0.00 0.00 83 1031.6
20260505235805 12 92 8.0 14.5 0.00 0.00 0.00 84 1031.6
20260505235305 12 42 6.4 12.9 0.00 0.00 0.00 84 1031.6
20260505234805 12 73 9.7 16.1 0.00 0.00 0.00 84 1031.6
20260505234305 12 39 8.0 20.9 0.00 0.00 0.00 84 1031.7
20260505233805 12 65 4.8 16.1 0.00 0.00 0.00 84 1031.7
20260505233305 12 45 8.0 12.9 0.00 0.00 0.00 85 1031.2
20260505232806 12 59 8.0 12.9 0.00 0.03 0.00 85 1031.2
20260505232306 12 78 4.8 9.7 0.00 0.03 0.00 85 1031.2
20260505231805 12 60 8.0 16.1 0.00 0.03 0.00 86 1031.2
20260505231305 12 57 6.4 14.5 0.00 0.03 0.00 86 1031.2
20260505230806 12 0 1.6 8.0 0.00 0.03 0.00 85 1031.2
20260505230305 12 64 4.8 11.3 0.00 0.03 0.00 85 1031.2
20260505225804 12 26 6.4 11.3 0.00 0.03 0.00 85 1031.2
20260505225306 12 21 4.8 9.7 0.00 0.03 0.00 85 1031.2
20260505224806 12 84 3.2 9.7 0.00 0.03 0.00 85 1030.7
20260505223806 12 64 6.4 9.7 0.00 0.03 0.00 85 1030.7
20260505222805 12 80 4.8 19.3 0.00 0.03 0.00 86 1030.7
20260505222306 12 205 3.2 12.9 0.00 0.03 0.00 87 1030.7
20260505221806 12 101 4.8 14.5 0.00 0.03 0.00 87 1030.7
20260505221305 12 109 1.6 9.7 0.00 0.03 0.00 87 1030.2
20260505220804 11 37 6.4 14.5 0.00 0.03 0.00 88 1030.2
20260505220304 11 75 4.8 8.0 0.00 0.03 0.00 88 1030.2
20260505215806 11 62 1.6 9.7 0.00 0.03 0.00 88 1030.2
20260505215306 11 87 4.8 8.0 0.00 0.03 0.00 89 1030.2
20260505214805 11 95 1.6 8.0 0.00 0.03 0.00 89 1030.2
20260505213806 11 65 4.8 11.3 0.00 0.03 0.00 89 1030.2
20260505213305 11 64 6.4 9.7 0.00 0.03 0.00 89 1030.2
20260505212806 11 45 1.6 3.2 0.00 0.03 0.00 89 1030.2
20260505212306 11 42 3.2 4.8 0.00 0.03 0.00 89 1030.2
20260505211806 11 64 1.6 4.8 0.00 0.03 0.00 89 1030.2
20260505211304 11 51 1.6 4.8 0.00 0.03 0.00 89 1030.2
20260505210805 11 59 3.2 8.0 0.00 0.03 0.00 89 1030.0
20260505210305 11 84 1.6 4.8 0.00 0.03 0.00 89 1030.0
20260505205805 11 69 4.8 14.5 0.00 0.03 0.00 90 1030.0
20260505204305 11 77 3.2 4.8 0.00 0.03 0.00 90 1030.0
20260505203805 11 172 4.8 11.3 0.00 0.03 0.00 90 1030.0
20260505202306 11 82 1.6 4.8 0.00 0.03 0.00 89 1029.7
20260505201805 11 69 1.6 4.8 0.00 0.03 0.00 89 1029.7